Location: Naloco
(16.5478°S, 37.1017°E)
Time: 02:08:22
(UTC+00:00)

Iridium 2 - Pass Details

Date: 13 August 2020
Orbit: 503 x 516 km, 85.5° (Epoch: 23 September)

Event Time Altitude Azimuth Distance (km) Brightness Sun altitude
Rises 16:44:17 0° 357° (N) 2,582 7.4 -20.0°
Reaches altitude 10° 16:46:23 10° 356° (N) 1,705 6.5 -20.5°
Maximum altitude 16:50:06 80° 269° (W) 518 3.6 -21.4°
Enters shadow 16:51:58 28° 185° (S) 972 5.0 -21.8°
